OPS 4682 DEB, 38459

Orbit data source: Space-Track

OPS 4682 DEB, 38459 is space debris in LEO originally from a launch on Sat, 03 Apr 1965 UTC launched from the Air Force Western Test Range (AFWTR). Debris objects in space refer to the collection of defunct objects orbiting the Earth. Examples of debris include non-operational satellites, rocket bodies, and fragments generated from explosions, collisions, or faulty payload assembly.

Loading next visibility...
Identifier
38459, 1965-027FQ
Orbit
LEO
Country
Flag of USUS
Related business
Manufacturer
Unknown
Mission
Spacecraft
Bus & Motor
Unknown
Mass
Unknown
Launch date (UTC)
1965-04-03 (61 years ago)
Launch vehicle
Unknown
Launch site
Air Force Western Test Range (AFWTR)
Object type
Payload
Rocket body
Debris
Shape & HBR
Unknown shape, 0.1 m
Radar Cross Section
Medium (>0.1 m² and <1 m²)

Expand to show TLE details & history
Last TLE update: 1 day ago

TLE from 1 day ago
0 OPS 4682 DEB
1 38459U 65027FQ  26174.28264691  .00000154  00000-0  53825-3 0  9993
2 38459  90.2398   6.2510 0027147 271.8819  87.9190 12.92925671549278
Epoch: 2026-06-23T06:47Z
TLE epoch observation values (Epoch: 2026-06-23T06:47:00.693Z)
Latitude
0.00001°
Longitude
-6.95833°
Altitude
1,292.104 km
Speed
7.211 km/s
True Right ascension
00h 25m 00s
True Declination
0° 00' 00"
Sunlit
Object was in daylight at epoch
Visualization orbit readout
Latitude
Unknown
Longitude
Unknown
Altitude
Unknown
Speed
Unknown
Apparent Right ascension
Unknown
Apparent Declination
Unknown
Sunlit
N/A
Visualization observer readout
Local Sidereal Time
01:46:27
Azimuth
Unknown
Elevation
Unknown
Doppler factor
Unknown
Orbital elements
Apogee altitude
1,307.877 km
Perigee altitude
1,266.259 km
Semi-major axis
7,665.205 km
Eccentricity
0.00271
Inclination
90.2398°
RAAN
6.251°
Arg. of periapsis
271.8819°
True anomaly
88.22991°
Mean anomaly
87.919°
Eccentric anomaly
88.07445°
Mean motion
3.23413 °/min
Orbital period
111.31 mins
BSTAR
0.00053825
Loading maneuver chart data...
Computing Atmospheric mass density...
Loading historical data...
Loading historical data...
Loading historical data...
Loading historical data...
Loading historical data...
Loading historical data...
Loading historical data...

Documentation

Showing up to 5 results
|